Location: Rowland
(34.5359°N, 79.2929°W)
Time: 12:24:35
(UTC+00:00)

Vanguard 2 - All Passes

Search period start: 05 October 2022 00:00
Search period end: 15 October 2022 00:00
Orbit: 552 x 2935 km, 32.9° (Epoch: 05 October)

Date Brightness Start Highest point End Pass type
(mag) Time Alt. Az. Time Alt. Az. Time Alt. Az.
05 Oct - 01:55:10 10° W 02:05:10 18° SW 02:14:13 10° S visible
05 Oct - 15:20:35 10° SSW 15:26:57 29° SE 15:36:24 10° E daylight
05 Oct - 17:26:28 10° WSW 17:35:44 69° SSE 17:50:56 10° E daylight
05 Oct - 19:34:54 10° W 19:47:13 84° S 20:05:00 10° E daylight
05 Oct - 21:44:48 10° W 21:59:55 69° SSW 22:17:37 10° ESE daylight
05 Oct - 23:56:40 10° W 00:11:51 39° SW 00:26:31 10° SSE visible
06 Oct - 02:17:00 10° WSW 02:21:55 12° SW 02:26:36 10° SSW visible
06 Oct - 15:36:54 10° SSW 15:43:41 38° SE 15:54:24 10° E daylight
06 Oct - 17:43:33 10° WSW 17:53:01 76° SSE 18:08:35 10° E daylight
06 Oct - 19:52:13 10° W 20:04:44 83° S 20:22:36 10° ESE daylight
06 Oct - 22:02:14 10° W 22:17:16 62° SSW 22:34:39 10° SE daylight
07 Oct - 00:14:49 10° W 00:28:48 31° SW 00:42:23 10° SSE visible
07 Oct - 13:51:34 10° SE 13:53:21 11° SE 13:55:20 10° ESE daylight
07 Oct - 15:53:31 10° SW 16:00:34 48° SSE 16:12:10 10° E daylight
07 Oct - 18:00:43 10° WSW 18:10:23 81° S 18:26:14 10° E daylight
07 Oct - 20:09:33 10° W 20:22:14 79° SSW 20:40:05 10° ESE daylight
07 Oct - 22:19:44 10° W 22:34:32 53° SSW 22:51:25 10° SE daylight
08 Oct - 00:33:29 10° W 00:45:44 24° SW 00:57:41 10° S visible
08 Oct - 14:05:51 10° S 14:09:55 18° SE 14:15:14 10° E daylight
08 Oct - 16:10:20 10° SW 16:17:35 59° SSE 16:29:50 10° E daylight
08 Oct - 18:17:57 10° W 18:27:50 84° S 18:43:53 10° E daylight
08 Oct - 20:26:53 10° W 20:39:41 73° SSW 20:57:27 10° ESE daylight
08 Oct - 22:37:22 10° W 22:51:45 45° SSW 23:07:55 10° SSE daylight
09 Oct - 00:53:10 10° WSW 01:02:39 17° SW 01:11:58 10° SSW visible
09 Oct - 14:21:39 10° SSW 14:26:33 25° SE 14:33:38 10° E daylight
09 Oct - 16:27:18 10° WSW 16:34:44 69° SSE 16:47:28 10° E daylight
09 Oct - 18:35:12 10° W 18:45:16 83° S 19:01:31 10° E daylight
09 Oct - 20:44:13 10° W 20:57:06 65° SSW 21:14:38 10° SE daylight
09 Oct - 22:55:14 10° W 23:08:53 36° SW 23:24:03 10° SSE visible
10 Oct - 01:16:05 10° WSW 01:19:37 11° SW 01:23:08 10° SW visible
10 Oct - 14:37:59 10° SSW 14:43:19 35° SE 14:51:34 10° E daylight
10 Oct - 16:44:24 10° WSW 16:51:59 76° SSE 17:05:04 10° E daylight
10 Oct - 18:52:28 10° W 19:02:43 80° S 19:19:06 10° ESE daylight
10 Oct - 21:01:38 10° W 21:14:27 57° SSW 21:31:36 10° SE daylight
10 Oct - 23:13:27 10° W 23:25:59 29° SW 23:39:42 10° SSE visible
11 Oct - 14:54:37 10° SW 15:00:13 46° SSE 15:09:17 10° E daylight
11 Oct - 17:01:34 10° W 17:09:19 81° S 17:22:42 10° E daylight
11 Oct - 19:09:44 10° W 19:20:09 75° SSW 19:36:35 10° ESE daylight
11 Oct - 21:19:07 10° W 21:31:44 48° SSW 21:48:17 10° SE daylight
11 Oct - 23:32:18 10° W 23:43:05 21° SW 23:54:41 10° S visible
12 Oct - 13:07:07 10° S 13:09:54 14° SE 13:13:15 10° ESE daylight
12 Oct - 15:11:28 10° SW 15:17:15 57° SSE 15:26:54 10° E daylight
12 Oct - 17:18:46 10° W 17:26:41 83° S 17:40:20 10° E daylight
12 Oct - 19:27:01 10° W 19:37:33 68° SSW 19:53:54 10° ESE daylight
12 Oct - 21:36:46 10° W 21:49:01 40° SSW 22:04:39 10° SSE daylight
12 Oct - 23:52:28 10° WSW 00:00:13 15° SW 00:08:21 10° SSW visible
13 Oct - 13:22:50 10° SSW 13:26:37 22° SE 13:31:42 10° E daylight
13 Oct - 15:28:29 10° WSW 15:34:24 68° SSE 15:44:28 10° E daylight
13 Oct - 17:35:59 10° W 17:44:04 81° S 17:57:56 10° E daylight
13 Oct - 19:44:20 10° W 19:54:54 60° SSW 20:11:02 10° SE daylight
13 Oct - 21:54:42 10° W 22:06:16 32° SSW 22:20:36 10° SSE daylight
14 Oct - 13:39:11 10° SSW 13:43:27 31° SSE 13:49:34 10° E daylight
14 Oct - 15:45:35 10° WSW 15:51:38 76° S 16:02:01 10° E daylight
14 Oct - 17:53:12 10° W 18:01:26 77° S 18:15:28 10° ESE daylight
14 Oct - 20:01:43 10° W 20:12:15 51° SSW 20:27:54 10° SE daylight
14 Oct - 22:13:05 10° W 22:23:30 24° SW 22:35:59 10° S daylight
